Location: Burbank
(38.7788°N, 114.0429°W)
Time: 22:53:52
(UTC+00:00)

Transit 2A - Pass Details

Date: 18 May 2026
Orbit: 595 x 949 km, 66.7° (Epoch: 5 June)

Event Time Altitude Azimuth Distance (km) Brightness Sun altitude
Rises 23:33:49 0° 244° (WSW) 3,581 10.3 35.1°
Reaches altitude 10° 23:36:55 10° 258° (WSW) 2,610 10.1 34.5°
Maximum altitude 23:41:44 24° 310° (NW) 1,754 8.9 33.6°
Drops below altitude 10° 23:46:19 10° 4° (N) 2,465 8.7 32.7°
Sets 23:49:11 0° 18° (NNE) 3,339 9.2 32.1°
